Regional Weather Roundup
Issued by NWS

Home | Current Version | Previous Version | Graphics & Text | Print | Product List | Glossary Off
Versions: 1 2 3 4 5 6 7 8 9 10 11 12 13 14 15 16 17 18 19 20 21 22 23 24 25 26 27 28 29 30 31 32 33 34 35 36 37 38 39 40 41 42 43 44 45 46 47 48 49 50

000
ASUS43 KBIS 220720
RWRND

NORTH DAKOTA REGIONAL WEATHER ROUNDUP
NATIONAL WEATHER SERVICE BISMARCK ND
200 AM CDT WED OCT 22 2014

NOTE: "FAIR" INDICATES FEW OR NO CLOUDS BELOW 12,000 FEET WITH NO
SIGNIFICANT WEATHER AND/OR OBSTRUCTIONS TO VISIBILITY.


NDZ001>003-009>011-017-220800-
NORTHWEST NORTH DAKOTA

CITY           SKY/WX    TMP DP  RH WIND       PRES   REMARKS
WILLISTON      CLOUDY    59  44  57 SW9       29.65R
MINOT          FAIR      64  44  48 SW9       29.60R
MINOT AFB      CLEAR     61  49  64 SW10      29.59R
$$

NDZ018>021-031>035-040>046-220800-
SOUTHWEST NORTH DAKOTA

CITY           SKY/WX    TMP DP  RH WIND       PRES   REMARKS
BISMARCK       PTCLDY    65  46  50 S18G28    29.66S
DICKINSON      PTCLDY    55  43  63 W12       29.69R
GARRISON         N/A     59  49  69 S5        29.63S
HETTINGER ARPT PTCLDY    55  41  59 NW8       29.73S
$$

NDZ004>008-012>016-024-026-027-054-220800-
NORTHEAST NORTH DAKOTA

CITY           SKY/WX    TMP DP  RH WIND       PRES   REMARKS
GRAND FORKS    CLEAR     54  41  61 S20       29.84F
GRND FRKS AFB  CLEAR     55  42  63 S22G30    29.82F
DEVILS LAKE    PTCLDY    59  43  55 S24G32    29.69S
$$

NDZ022-023-025-028>030-036>039-047>053-220800-
SOUTHEAST NORTH DAKOTA

CITY           SKY/WX    TMP DP  RH WIND       PRES   REMARKS
FARGO          CLEAR     55  41  59 SE25G36   29.90S
JAMESTOWN      MOCLDY    60  44  55 S17G24    29.77S
$$




USA.gov is the U.S. government's official web portal to all federal, state and local government web resources and services.